Genius — 2CPA7 — position and weather

sailwx.info

Track history (hours):
 
Tides and Currents Weather Stations Pressure Air Temp Water Temp Dewpoint Dewpoint Depression Visibility Wind Speed Wind Dir Waves Ship Positions

Genius

Last reported at 2014-Oct-25 20:15 UTC. Time now 2014-Oct-26 00:24 UTC.
Position S 32°08' E 154°10'.

Length 288 m; draft 8.4 m.

Type: Cargo ship. MMSI: 235074615.

Date/timePositionNaut miles runAvg speedWind from/ knotsBaromVisibWave heightAir tempDewpointWater temp
2014-Oct-25 20:15S 32°08' E 154°10'25613.5
2014-Oct-25 01:19S 27°51' E 154°06'3415.7
2014-Oct-24 23:06S 27°17' E 154°06'1015.4
2014-Oct-24 22:29S 27°07' E 154°06'1415.2
2014-Oct-24 21:32S 26°53' E 154°06'1515.2
2014-Oct-24 20:33S 26°38' E 154°06'1515.5
2014-Oct-24 19:33S 26°23' E 154°06'1615.5
2014-Oct-24 18:33S 26°07' E 154°06'1515.5
2014-Oct-24 17:34S 25°52' E 154°06'1514.7
2014-Oct-24 16:33S 25°37' E 154°05'2914.1
2014-Oct-24 14:28S 25°07' E 154°06'  
Track history (hours):
 
Tides and Currents Weather Stations Pressure Air Temp Water Temp Dewpoint Dewpoint Depression Visibility Wind Speed Wind Dir Waves Ship Positions

Genius

Last reported at 2014-Oct-25 20:15 UTC. Time now 2014-Oct-26 00:24 UTC.
Position S 32°08' E 154°10'.

Length 288 m; draft 8.4 m.

Type: Cargo ship. MMSI: 235074615.

Date/timePositionNaut miles runAvg speedWind from/ knotsBaromVisibWave heightAir tempDewpointWater temp
2014-Oct-25 20:15S 32°08' E 154°10'25613.5
2014-Oct-25 01:19S 27°51' E 154°06'3415.7
2014-Oct-24 23:06S 27°17' E 154°06'1015.4
2014-Oct-24 22:29S 27°07' E 154°06'1415.2
2014-Oct-24 21:32S 26°53' E 154°06'1515.2
2014-Oct-24 20:33S 26°38' E 154°06'1515.5
2014-Oct-24 19:33S 26°23' E 154°06'1615.5
2014-Oct-24 18:33S 26°07' E 154°06'1515.5
2014-Oct-24 17:34S 25°52' E 154°06'1514.7
2014-Oct-24 16:33S 25°37' E 154°05'2914.1
2014-Oct-24 14:28S 25°07' E 154°06'  

Dump ship's entire track history